{"data":{"norad_id":60509,"intl_designator":"2024-149AT","name":"FLOCK 4BE-29","alt_names":[],"object_type":"PAYLOAD","status":"ACTIVE","operator":null,"country":"US","launch_date":"2024-08-16","launch_site_code":"AFWTR","launch_vehicle":null,"mission":null,"orbit_class":"UNKNOWN","rcs_meters":null,"size_class":null,"mass_kg":null,"dimensions":null,"purposes":["earth_obs"],"wikipedia_slug":null,"has_3d_model":false,"image_url":null,"decayed_at":null,"tle_current":{"epoch":"2026-05-24T18:42:57.777696Z","epoch_age_seconds":87403,"freshness":"FRESH","line1":"1 60509U 24149AT  26144.77983539  .00014561  00000+0  32926-3 0  9999","line2":"2 60509  97.3807 230.3158 0003068  52.6195 307.5332 15.43260921 98804","mean_motion":15.43260921,"eccentricity":0.0003068,"inclination_deg":97.3807,"raan_deg":230.3158,"arg_perigee_deg":52.6195,"mean_anomaly_deg":307.5332,"bstar":0.00032926,"rev_number":9880,"period_min":93.308913638979,"perigee_km":434.40208115975,"apogee_km":438.58353801092,"semimajor_km":6814.6298095853,"source":"CELESTRAK","updated_at":"2026-05-25T13:38:13.332532Z"}}}